[[{"header":{"parameterUnit":"m.s-1","parameterCategory":1,"la1":30.2991,"la2":30.254,"lo1":-89.0895,"lo2":-89.0444,"dx":0.0017,"dy":0.0017,"nx":28,"ny":28,"refTime":"2022-11-03T21:00:00:Z","depth":0,"parameterNumber":2,"parameterNumberName":"U-component_of_WINDS"},"data":[0,0,0,0,0,0,0,0,0,0,0,0,0,0,0,0,0,0,0,0,0,0,0,0,0,0,0,0,0,0,0,0,0,0,0,0,0,0,0,0,0,0,0,0,0,0,0,0,0,0,0,0,0,0,0,0,0,0,-5.1986,-5.1986,0,-5.2032,-5.2033,-5.2033,-5.1977,-5.1975,-5.1973,-5.1971,-5.2016,-5.2019,-5.2022,0,0,0,0,0,0,0,0,0,0,0,0,0,-5.1847,-5.185,-5.1986,-5.1986,-5.1987,-5.2032,-5.2033,-5.2034,-5.1977,-5.1975,-5.1972,-5.197,-5.2015,-5.2018,-5.2022,0,0,0,0,0,0,0,0,0,0,0,0,0,-5.1902,-5.185,-5.1986,-5.1964,-5.1963,-5.2032,-5.2033,-5.2034,-5.1978,-5.1975,-5.1971,-5.1969,-5.2013,-5.2018,-5.2022,-5.2114,0,0,-5.2037,-5.2039,0,0,0,0,0,0,0,0,-5.1898,-5.1907,-5.1967,-5.1966,-5.1964,-5.1996,-5.2,-5.2061,-5.1979,-5.1972,-5.1971,-5.1967,-5.2011,-5.2016,-5.2031,-5.2116,-5.2118,-5.2037,-5.204,-5.2042,-5.2043,0,0,0,0,0,0,0,-5.1895,-5.1904,-5.2004,-5.1968,-5.1966,-5.1952,-5.1956,-5.2011,-5.2008,-5.1972,-5.1968,-5.1975,-5.201,-5.2027,-5.2032,-5.2119,-5.2037,-5.2041,-5.2044,-5.2046,-5.2282,-5.2285,0,0,0,0,0,0,-5.1894,-5.1902,-5.2003,-5.2005,-5.1923,-5.1957,-5.1962,-5.1989,-5.2008,-5.2008,-5.1977,-5.1972,-5.2021,-5.2027,-5.2033,-5.2142,-5.2042,-5.2047,-5.2049,-5.2278,-5.2282,-5.2286,0,0,0,0,0,0,-5.1891,-5.1903,-5.2001,-5.1953,-5.1964,-5.1963,-5.1993,-5.1991,-5.2008,-5.2012,-5.2011,-5.1995,-5.2018,-5.2027,-5.2095,-5.2142,-5.2049,-5.2053,-5.2274,-5.228,-5.2284,-5.2359,0,0,0,0,0,0,-5.1887,-5.1903,-5.1937,-5.1954,-5.1967,-5.2062,-5.1996,-5.1994,-5.2017,-5.201,-5.2028,-5.2028,-5.2016,-5.2088,-5.2099,-5.2147,-5.2057,-5.227,-5.2277,-5.2283,-5.2352,-5.2366,-5.2378,0,0,0,0,0,-5.1882,-5.1956,-5.1939,-5.1952,-5.201,-5.2065,-5.2072,-5.2058,-5.2021,-5.2056,-5.2058,-5.2028,-5.2136,-5.2096,-5.2108,-5.2158,-5.2267,-5.2275,-5.2282,-5.2346,-5.2363,-5.2378,0,0,0,0,0,0,-5.1943,-5.1957,-5.1939,-5.202,-5.2042,-5.2055,-5.2098,-5.2076,-5.2107,-5.21,-5.208,-5.2085,-5.2157,-5.2164,-5.2119,-5.2248,-5.2195,-5.2206,-5.224,-5.2256,-5.2269,-5.2264,-5.206,0,0,0,0,0,-5.1967,-5.201,-5.202,-5.209,-5.2102,-5.2099,-5.2122,-5.211,-5.2131,-5.2139,-5.2146,-5.2167,-5.2206,-5.2232,-5.2268,-5.2354,-5.2357,-5.2395,-5.2407,-5.2418,-5.2427,-5.2473,-5.249,-5.2312,-5.2311,-5.2311,0,0,-5.2014,-5.2027,-5.2056,-5.2103,-5.2118,-5.2163,-5.2107,-5.2156,-5.2189,-5.2146,-5.2211,-5.2218,-5.224,-5.2317,-5.2352,-5.2326,-5.2477,-5.2428,-5.2436,-5.2439,-5.2483,-5.2499,-5.2514,-5.2317,-5.2316,-5.2315,0,0,-5.2123,-5.2138,-5.2199,-5.2216,-5.224,-5.2238,-5.2253,-5.227,-5.2273,-5.2338,-5.2307,-5.2346,-5.2413,-5.2431,-5.2448,-5.2568,-5.254,-5.258,-5.2646,-5.2692,-5.2705,-5.2718,-5.2759,-5.2775,-5.2589,-5.2589,-5.2589,0,-5.2179,-5.2246,-5.2232,-5.2285,-5.2307,-5.2272,-5.2333,-5.235,-5.2385,-5.24,-5.2371,-5.2456,-5.2468,-5.2549,-5.2579,-5.2595,-5.261,-5.2576,-5.2705,-5.2717,-5.2728,-5.2768,-5.2784,-5.2594,-5.2593,-5.2593,-5.2592,0,-5.2313,-5.236,-5.2406,-5.2442,-5.2469,-5.2526,-5.252,-5.255,-5.2536,-5.2537,-5.2604,-5.2619,-5.2657,-5.2676,-5.2662,-5.2756,-5.2739,-5.2708,-5.2654,-5.275,-5.2787,-5.2802,-5.26,-5.2599,-5.2597,-5.2596,0,0,-5.2458,-5.2488,-5.2505,-5.2521,-5.2547,-5.2583,-5.2639,-5.2678,-5.2703,-5.2729,-5.2775,-5.2834,-5.2806,-5.2826,-5.2815,-5.2855,-5.2948,-5.2819,-5.2819,-5.2841,-5.3052,-5.3073,-5.3091,-5.2932,-5.2935,-5.2937,-5.3049,0,-5.2567,-5.2664,-5.2654,-5.2746,-5.2789,-5.2759,-5.2807,-5.2828,-5.2831,-5.2868,-5.2872,-5.2914,-5.2874,-5.2886,-5.2925,-5.2929,-5.299,-5.2921,-5.2972,-5.2974,-5.2966,-5.311,-5.3133,-5.3238,-5.3064,-5.3066,-5.3068,0,-5.2706,-5.2738,-5.2835,-5.2855,-5.2873,-5.2917,-5.2952,-5.2989,-5.3013,-5.3012,-5.3036,-5.3019,-5.3074,-5.3022,-5.3098,-5.3052,-5.3073,-5.3078,-5.3082,-5.3084,-5.3025,-5.3115,-5.3272,-5.3287,-5.3091,-5.3089,-5.3087,0,-5.2801,-5.2869,-5.2935,-5.295,-5.2976,-5.3008,-5.302,-5.3041,-5.3066,-5.3097,-5.3113,-5.315,-5.317,-5.3199,-5.3192,-5.3155,-5.327,-5.3217,-5.327,-5.3271,-5.3293,-5.3292,-5.3454,-5.3311,-5.3311,-5.331,-5.331,0,-5.2922,-5.2981,-5.2978,-5.3019,-5.3086,-5.3075,-5.3141,-5.3149,-5.3169,-5.321,-5.3186,-5.3226,-5.3215,-5.3254,-5.3249,-5.3313,-5.3322,-5.3323,-5.332,-5.3324,-5.3323,-5.3335,-5.3327,-5.3315,-5.3314,-5.3313,-5.3312,0,-5.3037,-5.3038,-5.3108,-5.3129,-5.3135,-5.3183,-5.32,-5.3238,-5.3241,-5.3294,-5.3306,-5.3309,-5.3354,-5.3351,-5.3401,-5.3398,-5.3476,-5.3466,-5.3469,-5.3466,-5.3518,-5.3513,-5.3692,-5.3715,-5.3559,-5.356,-5.3562,0,-5.3113,-5.3159,-5.3185,-5.3212,-5.3226,-5.327,-5.3295,-5.3287,-5.3315,-5.3347,-5.3381,-5.3425,-5.3458,-5.3532,-5.3538,-5.3577,-5.3567,-5.3627,-5.3572,-5.3574,-5.3566,-5.3562,-5.3567,-5.3637,-5.3639,-5.364,-5.3641,0,-5.3248,-5.3247,-5.3285,-5.3324,-5.3356,-5.3386,-5.3413,-5.3437,-5.3432,-5.3464,-5.351,-5.3537,-5.359,-5.3633,-5.367,-5.3682,-5.3661,-5.3659,-5.3673,-5.3676,-5.3675,-5.3675,-5.3496,-5.3654,-5.3653,-5.3652,-5.3651,-5.3651,-5.3345,-5.3384,-5.3409,-5.3453,-5.3473,-5.35,-5.3537,-5.3546,-5.3585,-5.3627,-5.3621,-5.3673,-5.3697,-5.3745,-5.3761,-5.3802,-5.378,-5.38,-5.3805,-5.381,-5.3815,-5.3671,-5.3809,-5.3808,-5.3808,-5.3808,-5.3807,0,-5.3477,-5.3492,-5.3533,-5.3573,-5.3608,-5.3587,-5.3617,-5.3647,-5.3694,-5.3719,-5.3753,-5.3807,-5.385,-5.3861,-5.3902,-5.3932,-5.3923,-5.3942,-5.3939,-5.3942,-5.3833,-5.3816,-5.3949,-5.3949,-5.3949,-5.3949,-5.3949,-5.3949,-5.3549,-5.3615,-5.3617,-5.3693,-5.3707,-5.3759,-5.3778,-5.3803,-5.3823,-5.3884,-5.392,-5.3928,-5.3947,-5.399,-5.4027,-5.403,-5.4045,-5.4068,-5.4066,-5.3964,-5.395,-5.3936,-5.392,-5.4072,-5.4072,-5.4172,-5.4172,-5.4173]},{"header":{"parameterUnit":"m.s-1","parameterCategory":1,"la1":30.2991,"la2":30.254,"lo1":-89.0895,"lo2":-89.0444,"dx":0.0017,"dy":0.0017,"nx":28,"ny":28,"refTime":"2022-11-03T21:00:00:Z","depth":0,"parameterNumber":3,"parameterNumberName":"V-component_of_WINDS"},"data":[0,0,0,0,0,0,0,0,0,0,0,0,0,0,0,0,0,0,0,0,0,0,0,0,0,0,0,0,0,0,0,0,0,0,0,0,0,0,0,0,0,0,0,0,0,0,0,0,0,0,0,0,0,0,0,0,0,0,3.5502,3.5503,0,3.5635,3.5636,3.5638,3.5654,3.5652,3.5651,3.565,3.5786,3.5791,3.5795,0,0,0,0,0,0,0,0,0,0,0,0,0,3.5264,3.5268,3.5501,3.5503,3.5505,3.5634,3.5636,3.5638,3.5654,3.5652,3.5651,3.5649,3.5784,3.579,3.5796,0,0,0,0,0,0,0,0,0,0,0,0,0,3.5379,3.527,3.5501,3.5528,3.5532,3.5634,3.5636,3.5639,3.5654,3.5652,3.565,3.5649,3.5783,3.579,3.5797,3.5881,0,0,3.5819,3.5822,0,0,0,0,0,0,0,0,3.5373,3.5388,3.5523,3.5527,3.5531,3.5626,3.5602,3.572,3.5655,3.5608,3.565,3.5648,3.5734,3.5745,3.5775,3.5887,3.5893,3.582,3.5824,3.5827,3.5829,0,0,0,0,0,0,0,3.5365,3.5382,3.5554,3.5525,3.553,3.5535,3.5549,3.5625,3.568,3.5612,3.5613,3.5629,3.5736,3.5768,3.5778,3.5895,3.5819,3.5826,3.583,3.5833,3.6087,3.6089,0,0,0,0,0,0,3.5351,3.5376,3.555,3.5558,3.5446,3.5541,3.5557,3.5597,3.568,3.569,3.563,3.5629,3.5756,3.5769,3.5783,3.5889,3.5827,3.5834,3.5838,3.6085,3.6088,3.609,0,0,0,0,0,0,3.5346,3.5367,3.5545,3.5467,3.549,3.5547,3.5592,3.5601,3.5632,3.5694,3.5704,3.5652,3.5755,3.5772,3.5857,3.5894,3.5837,3.5844,3.6082,3.6086,3.6089,3.6101,0,0,0,0,0,0,3.5339,3.5365,3.5396,3.5468,3.5494,3.5616,3.5595,3.5605,3.5645,3.5644,3.5717,3.5727,3.5755,3.5846,3.5864,3.5903,3.5849,3.6079,3.6084,3.6088,3.6098,3.6105,3.6111,0,0,0,0,0,3.5331,3.5394,3.5398,3.5419,3.5535,3.5618,3.5633,3.5664,3.5648,3.5681,3.5721,3.5725,3.5887,3.5855,3.5875,3.5917,3.6077,3.6082,3.6087,3.6095,3.6103,3.611,0,0,0,0,0,0,3.5324,3.5403,3.5409,3.5496,3.5551,3.5621,3.5663,3.5672,3.5731,3.5729,3.5765,3.5781,3.5865,3.5899,3.5862,3.6004,3.598,3.599,3.5979,3.5988,3.5994,3.5984,3.5855,0,0,0,0,0,3.5333,3.5393,3.5459,3.553,3.5557,3.5606,3.5643,3.5662,3.572,3.5743,3.5789,3.5844,3.5909,3.595,3.6012,3.6103,3.612,3.6142,3.6148,3.6153,3.6161,3.6216,3.6227,3.6108,3.6108,3.6108,0,0,3.5351,3.5402,3.5438,3.553,3.5574,3.5638,3.5624,3.5691,3.5738,3.5752,3.5836,3.5872,3.5937,3.6026,3.6068,3.6057,3.6198,3.616,3.6163,3.6169,3.6222,3.6234,3.6243,3.6112,3.6111,3.611,0,0,3.5418,3.5461,3.5527,3.5572,3.564,3.5672,3.5688,3.5758,3.5782,3.5867,3.588,3.5937,3.6046,3.6093,3.6131,3.6219,3.6226,3.6238,3.6272,3.6325,3.6334,3.6343,3.6377,3.6388,3.6246,3.6246,3.6246,0,3.5432,3.5527,3.5559,3.5627,3.5668,3.5685,3.5753,3.5795,3.588,3.5909,3.5896,3.6035,3.608,3.6182,3.6204,3.6233,3.6254,3.623,3.633,3.6339,3.6348,3.6381,3.6393,3.6247,3.6247,3.6247,3.6247,0,3.5543,3.5609,3.5654,3.5737,3.5783,3.585,3.5894,3.5938,3.5954,3.5989,3.6076,3.6131,3.6206,3.6231,3.6247,3.6337,3.6329,3.6323,3.63,3.636,3.6392,3.6404,3.6249,3.6249,3.6248,3.6248,0,0,3.5608,3.571,3.5726,3.5765,3.5842,3.5894,3.5964,3.6038,3.6076,3.6134,3.6195,3.6288,3.6284,3.6327,3.6349,3.6394,3.6465,3.6383,3.6386,3.6399,3.6571,3.6576,3.659,3.647,3.6472,3.6474,3.6566,0,3.5685,3.5809,3.5841,3.5947,3.601,3.6029,3.6089,3.6144,3.6179,3.6238,3.6276,3.6343,3.6331,3.6358,3.6404,3.6446,3.65,3.644,3.6528,3.6531,3.6513,3.6606,3.6611,3.6696,3.6578,3.6581,3.6582,0,3.5791,3.5853,3.5965,3.6038,3.6066,3.612,3.6192,3.6248,3.6312,3.6334,3.6384,3.6402,3.6477,3.645,3.6555,3.6513,3.6551,3.6578,3.6582,3.6592,3.6561,3.6621,3.6723,3.6736,3.6601,3.66,3.6598,0,3.583,3.5942,3.6024,3.6057,3.6143,3.6181,3.6219,3.6281,3.6324,3.6388,3.6417,3.6488,3.6528,3.6583,3.6621,3.6597,3.6724,3.6698,3.6746,3.6745,3.6772,3.677,3.6883,3.6794,3.6793,3.6793,3.6793,0,3.5914,3.5982,3.6044,3.6094,3.6173,3.6211,3.6287,3.6326,3.6381,3.6441,3.6461,3.6517,3.6563,3.6626,3.6655,3.674,3.6756,3.6778,3.6785,3.6777,3.6775,3.6803,3.6799,3.6797,3.6796,3.6795,3.6795,0,3.5971,3.6014,3.6106,3.6181,3.6201,3.6256,3.6321,3.6372,3.6408,3.6484,3.6504,3.6561,3.6636,3.6679,3.6773,3.6794,3.6888,3.6891,3.6867,3.6871,3.6916,3.6912,3.7053,3.7075,3.6969,3.697,3.697,0,3.6022,3.6076,3.6157,3.6199,3.6238,3.6304,3.635,3.639,3.6437,3.6516,3.6558,3.6635,3.6698,3.6818,3.6868,3.6941,3.6948,3.6992,3.6959,3.695,3.6952,3.6949,3.6956,3.6998,3.6999,3.7,3.7001,0,3.6109,3.6129,3.6194,3.6267,3.6321,3.6381,3.644,3.6473,3.6524,3.6576,3.6654,3.6703,3.6801,3.6878,3.6956,3.6995,3.7008,3.7011,3.7026,3.7019,3.7004,3.7016,3.6885,3.7008,3.7007,3.7006,3.7006,3.7006,3.6167,3.6217,3.6283,3.6356,3.6405,3.646,3.6513,3.6557,3.6623,3.6706,3.6726,3.6808,3.6874,3.698,3.7022,3.7088,3.7081,3.7102,3.7108,3.7113,3.7116,3.6992,3.7102,3.7102,3.7102,3.7102,3.7102,0,3.6258,3.6302,3.6368,3.6452,3.6509,3.6516,3.6583,3.6631,3.6704,3.6764,3.6827,3.6918,3.6994,3.7051,3.7128,3.7171,3.7179,3.719,3.7188,3.7198,3.7117,3.7097,3.7183,3.7183,3.7183,3.7183,3.7183,3.7183,3.6312,3.6398,3.6426,3.6538,3.6581,3.6663,3.6701,3.6754,3.6802,3.6904,3.6967,3.7004,3.7064,3.7147,3.7217,3.7232,3.7261,3.7272,3.7288,3.7212,3.7203,3.7195,3.7177,3.7277,3.7277,3.7364,3.7364,3.7365]}]]